Regional Weather Roundup
Issued by NWS

Home | Current Version | Previous Version | Graphics & Text | Print | Product List | Glossary On
Versions: 1 2 3 4 5 6 7 8 9 10 11 12 13 14 15 16 17 18 19 20 21 22 23 24 25 26 27 28 29 30 31 32 33 34 35 36 37 38 39 40 41 42 43 44 45 46 47 48 49 50
000
ASUS43 KLOT 301004
RWRIL

ILLINOIS REGIONAL WEATHER ROUNDUP
NATIONAL WEATHER SERVICE CHICAGO/ROMEOVILLE IL
500 AM CDT SAT JUL 30 2016

NOTE: "FAIR" INDICATES FEW OR NO CLOUDS BELOW 12,000 FEET WITH NO
SIGNIFICANT WEATHER AND/OR OBSTRUCTIONS TO VISIBILITY.

* THESE STATIONS ARE NOT UNDER NWS QUALITY CONTROL. THEY ALSO MAY NOT
  REPORT WEATHER SUCH AS PRECIPITATION OR FOG.

ILZ001-002-007-009-015-016-024-301100-
NORTHWEST ILLINOIS

CITY           SKY/WX    TMP DP  RH WIND       PRES   REMARKS
MOLINE         CLOUDY    71  65  81 CALM      29.95R
STERLING*      CLOUDY    68  67  96 NE3       29.96R
SAVANNA*       CLEAR     64  63  96 CALM      29.96S
$$

ILZ003-004-008-010-011-017-018-301100-
NORTH CENTRAL ILLINOIS

CITY           SKY/WX    TMP DP  RH WIND       PRES   REMARKS
ROCKFORD       PTCLDY    67  65  93 N6        29.97S
FREEPORT*      CLOUDY    65  64  96 CALM      29.99S
ROCHELLE*      CLOUDY    65  64  99 CALM      29.96R FOG
DE KALB*       CLEAR     65  65  97 N5        29.96S FOG
$$

ILZ005-006-012>014-019>023-301100-
NORTHEAST ILLINOIS

CITY           SKY/WX    TMP DP  RH WIND       PRES   REMARKS
CHICAGO-OHARE  MOCLDY    71  65  81 NE12      29.93R
CHICAGO-MIDWAY CLOUDY    73  67  81 NE9       29.92S
AURORA         PTCLDY    68  65  90 NE6       29.94R
LANSING*       CLEAR     66  65  95 CALM      29.93R FOG
WAUKEGAN       PTCLDY    67  64  90 NE9       29.95S
DUPAGE AIRPORT CLEAR     65  63  93 N6        29.93S
KANKAKEE*      FOG       67  66  97 CALM      29.92S VSB<1/4
WHEELING       CLOUDY    70  64  81 NE8       29.95S
MORRIS*        MOCLDY    67  66  96 CALM      29.92S FOG
NORTHERLY ISL    N/A     72  67  84 MISG        N/A
$$

LMZ740>746-301100-
SOUTHERN LAKE MICHIGAN

STATION/POSITION SKY/WX   TEMP    WIND        PRES    VSBY  WAVE
                          AIR SEA DIR/SP/G                  HT/PER
                          (F)     (DEG/KT/KT) (MB)    (MI)  (FT/S)
SOUTHERN BUOY              67 73   80/ 21/ 25 1013.3F         4/ 5
WILMETTE HARBOR            72 71   80/ 14/ 17   N/A           4/ 5
HARRISON CRIB              73      50/  9/ 10   N/A
BURNHAM HARBOR             72      30/  5/  7   N/A
CALUMET HARBOR             71      20/  2/  3 1012.6F
BURNS HARBOR               70     120/  4/ 11 1013.5F
MICHIGAN CITY              68     110/  9/ 10   N/A
MICHIGAN CITY 6N           70 76  130/ 12/ 14   N/A           2/ 5
ST. JOSEPH                 69 71   50/  8/ 10 1013.1F         2
$$

ILZ025>027-034>036-040-047-049-050-058-095>099-301100-
WEST-CENTRAL ILLINOIS

CITY           SKY/WX    TMP DP  RH WIND       PRES   REMARKS
QUINCY         FOG       66  66 100 NW6       29.96R VSB 1/4
GALESBURG*     CLOUDY    68  67  96 CALM      29.96R FOG
MACOMB*        FOG       66  66 100 NW3       29.97S VSB 1
JACKSONVILLE*  CLEAR     63  62  96 CALM      29.95R
PITTSFIELD*    CLEAR     65  64  97 W3        29.97R
$$

ILZ028>032-037-038-041>044-048-051>054-059>061-301100-
CENTRAL ILLINOIS

CITY           SKY/WX    TMP DP  RH WIND       PRES   REMARKS
PONTIAC        CLOUDY    67  67 100 CALM      29.94R FOG
BLOOMINGTON    CLOUDY    66  66 100 CALM      29.94F
DECATUR        CLEAR     69  64  84 NW6       29.94R
PEORIA         CLOUDY    71  69  93 CALM      29.93S
LACON*         CLOUDY    68  67  97 CALM      29.93S FOG
LINCOLN*       MOCLDY    67  66  99 CALM      29.94R
SPRINGFIELD    CLEAR     65  63  93 SW3       29.94S
TAYLORVILLE    CLEAR     64  64  98 MISG      29.95S
$$

ILZ033-039-045-046-055>057-062-063-301100-
EAST-CENTRAL ILLINOIS

CITY           SKY/WX    TMP DP  RH WIND       PRES   REMARKS
CHAMPAIGN      CLEAR     64  63  96 W5        29.93S
MATTOON        CLEAR     67  64  90 W6        29.94R
PARIS*         CLEAR     66  66  99 CALM      29.93S
$$

ILZ079-100>102-301100-
SOUTHWEST ILLINOIS

CITY           SKY/WX    TMP DP  RH WIND       PRES   REMARKS
ALTON          CLEAR     67  66  96 CALM      29.95S
BELLEVILLE     CLEAR     69  69 100 CALM      29.93S
CAHOKIA*       CLEAR     69  67  93 CALM      29.94S
SPARTA*        PTCLDY    69  69 100 CALM      29.96S
$$

ILZ064>066-069>071-074>076-080>082-084>086-088>090-092>094-301100-
SOUTH-CENTRAL ILLINOIS

CITY           SKY/WX    TMP DP  RH WIND       PRES   REMARKS
CARBONDALE     MOCLDY    69  67  93 W5        29.94R
CAIRO*         PTCLDY    68  68 100 CALM      29.95S FOG
EFFINGHAM*     CLEAR     67  67 100 CALM      29.96R
MARION         MOCLDY    72  70  94 CALM      29.95R FOG
MT. VERNON     CLOUDY    72  66  83 CALM      29.95R
CENTRALIA*     PTCLDY    70  70 100 CALM      29.95R
SALEM*         CLEAR     71  69  95 CALM      29.95R FOG
METROPOLIS*    PTCLDY    69  69  99 CALM      29.95S FOG
$$

ILZ067-068-072-073-078-083-087-091-301100-
SOUTHEAST ILLINOIS

CITY           SKY/WX    TMP DP  RH WIND       PRES   REMARKS
LAWRENCEVILLE  CLOUDY    71  70  96 CALM        N/A
FLORA*         MOCLDY    73  71  94 NW5       29.94S
FAIRFIELD*     CLOUDY    72  72 100 CALM      29.93R
HARRISBURG*    MOCLDY    71  71 100 CALM      29.94R
ROBINSON*      CLOUDY    65  65 100 CALM      29.94S
CARMI*         CLOUDY    71  71 100 CALM      29.93R FOG
$$

ABBREVIATIONS USED IN REMARKS
   TC - TEMPERATURE IN CELSIUS
  WCI - WIND CHILL INDEX
   HX - HEAT INDEX
  VSB - VISIBILITY
$$





USA.gov is the U.S. government's official web portal to all federal, state and local government web resources and services.